TimeCST,TemperatureF,Dew PointF,Humidity,Sea Level PressureIn,VisibilityMPH,Wind Direction,Wind SpeedMPH,Gust SpeedMPH,PrecipitationIn,Events,Conditions,WindDirDegrees,DateUTC
12:53 AM,48.9,41.0,74,30.27,10.0,Calm,Calm,-,N/A,,Clear,0,2012-11-18 06:53:00
1:53 AM,46.9,42.1,83,30.27,10.0,Calm,Calm,-,N/A,,Clear,0,2012-11-18 07:53:00
2:53 AM,46.0,43.0,89,30.26,9.0,Calm,Calm,-,N/A,,Clear,0,2012-11-18 08:53:00
3:53 AM,45.0,43.0,93,30.24,10.0,East,3.5,-,N/A,,Clear,90,2012-11-18 09:53:00
4:53 AM,48.0,44.1,86,30.24,10.0,NE,4.6,-,N/A,,Clear,50,2012-11-18 10:53:00
5:53 AM,48.0,44.1,86,30.25,9.0,NNE,3.5,-,N/A,,Clear,30,2012-11-18 11:53:00
6:53 AM,48.0,45.0,89,30.26,8.0,NE,3.5,-,N/A,,Clear,50,2012-11-18 12:53:00
7:53 AM,51.1,46.9,86,30.28,6.0,NE,3.5,-,N/A,,Clear,50,2012-11-18 13:53:00
8:53 AM,55.9,48.9,77,30.29,8.0,ENE,4.6,-,N/A,,Clear,70,2012-11-18 14:53:00
9:53 AM,61.0,51.1,70,30.27,10.0,ESE,8.1,-,N/A,,Clear,120,2012-11-18 15:53:00
10:53 AM,66.0,52.0,60,30.28,10.0,SSE,10.4,-,N/A,,Clear,150,2012-11-18 16:53:00
11:53 AM,69.1,52.0,54,30.25,10.0,SSE,8.1,-,N/A,,Scattered Clouds,150,2012-11-18 17:53:00
12:53 PM,71.1,48.9,45,30.22,10.0,South,10.4,17.3,N/A,,Partly Cloudy,170,2012-11-18 18:53:00
1:53 PM,71.1,50.0,47,30.18,10.0,SSE,9.2,-,N/A,,Clear,160,2012-11-18 19:53:00
2:53 PM,73.0,48.9,42,30.17,10.0,SE,11.5,18.4,N/A,,Partly Cloudy,140,2012-11-18 20:53:00
3:53 PM,73.0,48.0,41,30.17,10.0,SSE,10.4,-,N/A,,Clear,160,2012-11-18 21:53:00
4:53 PM,71.1,48.9,45,30.17,10.0,SE,6.9,-,N/A,,Clear,140,2012-11-18 22:53:00
5:53 PM,69.1,50.0,51,30.18,10.0,SE,3.5,-,N/A,,Overcast,140,2012-11-18 23:53:00
6:53 PM,68.0,51.1,55,30.20,10.0,Calm,Calm,-,N/A,,Overcast,0,2012-11-19 00:53:00
7:53 PM,66.9,52.0,59,30.21,10.0,SE,3.5,-,N/A,,Overcast,130,2012-11-19 01:53:00
8:53 PM,66.9,52.0,59,30.21,10.0,SE,9.2,-,N/A,,Overcast,140,2012-11-19 02:53:00
9:53 PM,64.0,52.0,65,30.21,10.0,SE,6.9,-,N/A,,Partly Cloudy,140,2012-11-19 03:53:00
11:53 PM,59.0,53.1,81,30.21,10.0,SE,3.5,-,N/A,,Clear,140,2012-11-19 05:53:00